Tracking 17782 objects as of 26-July-2016
HD Live streaming from Space Station
objects crossing your sky now

GLOBALSTAR M044

Track GLOBALSTAR M044 now!
10-day predictions
GLOBALSTAR M044 is classified as:


NORAD ID: 25678
Int'l Code: 1999-019C
Perigee: 1,728.8 km
Apogee: 1,737.4 km
Inclination: 52.0 °
Period: 121.0 minutes
Semi major axis: 8104 km
RCS: 2.4818 m2 (large)
Launch date: April 15, 1999
Source: Globalstar (GLOB)
Launch site: TYURATAM MISSILE AND SPACE COMPLEX (TTMTR)
Your satellite tracking list
Your tracking list is empty





NASA's NSSDC Master Catalog

Two Line Element Set (TLE):
1 25678U 99019C   16207.86586734 -.00000105  00000-0 -30413-3 0  9991
2 25678  51.9987   9.6660 0005308 250.8913 195.0040 11.90172434784516
Source of the keplerian elements: AFSPC

N2YO: 736